Location: Bismarck
(46.7731°N, 100.8200°W)
Time: 03:09:16
(UTC-06:00)

ISS - All Passes

Search period start: 28 January 2015 00:00
Search period end: 07 February 2015 00:00
Orbit: 402 x 410 km, 51.6° (Epoch: 28 January)

Date Brightness Start Highest point End Pass type
(mag) Time Alt. Az. Time Alt. Az. Time Alt. Az.
28 Jan - 00:24:38 10° WSW 00:27:55 73° NNW 00:31:14 10° ENE night (unlit)
28 Jan - 02:01:42 10° WNW 02:04:46 34° N 02:07:50 10° ENE night (unlit)
28 Jan - 03:38:30 10° WNW 03:41:43 47° NNE 03:44:56 10° E night (unlit)
28 Jan - 05:15:04 10° WNW 05:18:14 41° SW 05:21:22 10° SE visible
28 Jan - 21:58:35 10° SSE 22:00:03 13° SE 22:01:37 10° ESE night (unlit)
28 Jan - 23:32:49 10° SW 23:36:06 74° SSE 23:39:24 10° ENE night (unlit)
29 Jan - 01:09:41 10° W 01:12:48 37° N 01:15:56 10° ENE night (unlit)
29 Jan - 02:46:39 10° WNW 02:49:47 38° N 02:52:55 10° E night (unlit)
29 Jan - 04:23:10 10° WNW 04:26:29 70° SSW 04:29:46 10° SE night (unlit)
29 Jan - 06:01:07 10° WSW 06:02:31 12° SW 06:03:49 10° SSW visible
29 Jan - 22:41:11 10° SW 22:44:19 44° SE 22:47:29 10° ENE night (unlit)
30 Jan - 00:17:40 10° W 00:20:51 46° NNW 00:24:03 10° ENE night (unlit)
30 Jan - 01:54:44 10° WNW 01:57:48 34° N 02:00:53 10° ENE night (unlit)
30 Jan - 03:31:19 10° WNW 03:34:38 76° NNE 03:37:57 10° ESE night (unlit)
30 Jan - 05:08:19 10° W 05:10:52 20° SW 05:13:22 10° S night (unlit)
30 Jan - 21:49:48 10° SSW 21:52:35 26° SE 21:55:24 10° E night (unlit)
30 Jan - 23:25:39 10° WSW 23:28:55 62° NNW 23:32:12 10° ENE night (unlit)
31 Jan - 01:02:45 10° WNW 01:05:48 33° N 01:08:51 10° ENE night (unlit)
31 Jan - 02:39:28 10° WNW 02:42:43 53° NNE 02:45:58 10° E night (unlit)
31 Jan - 04:16:07 10° WNW 04:19:09 34° SW 04:22:11 10° SSE night (unlit)
31 Jan - 20:58:51 10° S 21:00:53 16° SE 21:02:59 10° E night (unlit)
31 Jan - 22:33:43 10° WSW 22:37:00 88° SSE 22:40:19 10° ENE night (unlit)
01 Feb - 00:10:41 10° WNW 00:13:46 35° N 00:16:52 10° ENE night (unlit)
01 Feb - 01:47:34 10° WNW 01:50:45 41° NNE 01:53:54 10° E night (unlit)
01 Feb - 03:24:06 10° WNW 03:27:22 57° SSW 03:30:36 10° SE night (unlit)
01 Feb - 21:41:56 10° SW 21:45:09 54° SSE 21:48:23 10° ENE night (unlit)
01 Feb - 23:18:35 10° W 23:21:45 42° NNW 23:24:54 10° ENE night (unlit)
02 Feb - 00:55:38 10° WNW 00:58:43 35° N 01:01:48 10° ENE night (unlit)
02 Feb - 02:32:10 10° WNW 02:35:29 89° N 02:38:48 10° ESE night (unlit)
02 Feb - 04:09:25 10° W 04:11:38 17° SW 04:13:47 10° S night (unlit)
02 Feb - 20:50:22 10° SSW 20:53:19 32° SE 20:56:19 10° ENE night (unlit)
02 Feb - 22:26:30 10° W 22:29:43 54° NNW 22:32:59 10° ENE night (unlit)
03 Feb - 00:03:36 10° WNW 00:06:39 33° N 00:09:42 10° ENE night (unlit)
03 Feb - 01:40:15 10° WNW 01:43:32 60° NNE 01:46:49 10° ESE night (unlit)
03 Feb - 03:17:00 10° W 03:19:53 27° SW 03:22:44 10° SSE night (unlit)
03 Feb - 19:59:09 10° S 20:01:33 19° SE 20:03:59 10° E visible
03 Feb - 21:34:28 10° WSW 21:37:45 79° NNW 21:41:03 10° ENE night (unlit)
03 Feb - 23:11:30 10° WNW 23:14:33 34° N 23:17:38 10° ENE night (unlit)
04 Feb - 00:48:19 10° WNW 00:51:31 45° NNE 00:54:42 10° E night (unlit)
04 Feb - 02:24:52 10° WNW 02:28:03 46° SW 02:31:14 10° SE night (unlit)
04 Feb - 19:08:49 10° SSE 19:09:48 11° SE 19:10:54 10° ESE visible
04 Feb - 20:42:33 10° SW 20:45:48 66° SSE 20:49:04 10° ENE visible
04 Feb - 22:19:21 10° W 22:22:28 38° N 22:25:35 10° ENE night (unlit)
04 Feb - 23:56:20 10° WNW 23:59:26 37° N 00:02:33 10° E night (unlit)
05 Feb - 01:32:51 10° WNW 01:36:09 77° SSW 01:39:26 10° ESE night (unlit)
05 Feb - 03:10:28 10° WSW 03:12:13 13° SW 03:13:52 10° SSW night (unlit)
05 Feb - 19:50:50 10° SW 19:53:54 39° SE 19:56:59 10° ENE visible
05 Feb - 21:27:11 10° W 21:30:22 48° NNW 21:33:35 10° ENE visible
05 Feb - 23:04:16 10° WNW 23:07:18 33° N 23:10:22 10° ENE night (unlit)
06 Feb - 00:40:51 10° WNW 00:44:09 70° NNE 00:47:27 10° ESE night (unlit)
06 Feb - 02:17:45 10° W 02:20:25 23° SW 02:23:03 10° SSE night (unlit)
06 Feb - 18:59:22 10° SSW 19:02:02 23° SE 19:04:44 10° E visible
06 Feb - 20:35:02 10° WSW 20:38:19 68° NNW 20:41:36 10° ENE visible
06 Feb - 22:12:07 10° WNW 22:15:09 33° N 22:18:13 10° ENE night (unlit)
06 Feb - 23:48:52 10° WNW 23:52:05 49° NNE 23:55:19 10° E night (unlit)
